When you browse on this site, cookies collect data to enhance your experience and personalize the content and advertising you see.
Visit our Privacy Policy to learn more. By continuing to use the site, you agree to this use of cookies and data.
  • en France
  • Liste des pays
  • À 7 jours
  • Température de l'eau
  • Carte satellitaire
  • Carte météo
  • Widgets météo
  • user-avatar
    Se connecter

    Météo par heure à Yevlakh

    Ce jour, 26 Avril, Vendredi

    Heure Température Précipitation Vent Pression Humidité
    00:00 +13°C° 0 mm 3 m/s 769 mmHg 58%
    01:00 +13°C° 0 mm 2 m/s 769 mmHg 58%
    02:00 +13°C° 0 mm 2 m/s 769 mmHg 59%
    03:00 +12°C° 0 mm 1 m/s 769 mmHg 59%
    04:00 +12°C° 0 mm 1 m/s 769 mmHg 59%
    05:00 +13°C° 0 mm 1 m/s 769 mmHg 59%
    06:00 +12°C° 0 mm 0 m/s 769 mmHg 58%
    07:00 +14°C° 0 mm 1 m/s 768 mmHg 54%
    08:00 +16°C° 0 mm 1 m/s 768 mmHg 49%
    09:00 +18°C° 0 mm 2 m/s 767 mmHg 45%
    10:00 +20°C° 0 mm 1 m/s 767 mmHg 42%
    11:00 +21°C° 0 mm 1 m/s 767 mmHg 39%
    12:00 +22°C° 0 mm 1 m/s 766 mmHg 36%
    13:00 +23°C° 0 mm 1 m/s 766 mmHg 34%
    14:00 +24°C° 0 mm 2 m/s 765 mmHg 32%
    15:00 +24°C° 0 mm 2 m/s 765 mmHg 31%
    16:00 +22°C° 0 mm 3 m/s 765 mmHg 34%
    17:00 +22°C° 0 mm 3 m/s 765 mmHg 38%
    18:00 +21°C° 0 mm 3 m/s 765 mmHg 42%
    19:00 +20°C° 0 mm 3 m/s 765 mmHg 45%
    20:00 +18°C° 0 mm 3 m/s 765 mmHg 48%
    21:00 +17°C° 0 mm 3 m/s 766 mmHg 51%
    22:00 +16°C° 0 mm 3 m/s 766 mmHg 52%
    23:00 +14°C° 0 mm 3 m/s 766 mmHg 54%

    Demain, 27 Avril, Samedi

    Heure Température Précipitation Vent Pression Humidité
    00:00 +13°C° 0 mm 3 m/s 766 mmHg 55%
    01:00 +14°C° 0 mm 2 m/s 766 mmHg 54%
    02:00 +13°C° 0 mm 2 m/s 766 mmHg 54%
    03:00 +12°C° 0 mm 1 m/s 766 mmHg 53%
    04:00 +13°C° 0 mm 1 m/s 766 mmHg 54%
    05:00 +13°C° 0 mm 1 m/s 766 mmHg 55%
    06:00 +12°C° 0 mm 0 m/s 765 mmHg 56%
    07:00 +15°C° 0 mm 1 m/s 765 mmHg 51%
    08:00 +18°C° 0 mm 1 m/s 765 mmHg 46%
    09:00 +19°C° 0 mm 1 m/s 764 mmHg 41%
    10:00 +21°C° 0 mm 1 m/s 764 mmHg 38%
    11:00 +22°C° 0 mm 1 m/s 764 mmHg 36%
    12:00 +23°C° 0 mm 1 m/s 763 mmHg 33%
    13:00 +24°C° 0 mm 2 m/s 763 mmHg 31%
    14:00 +24°C° 0 mm 3 m/s 762 mmHg 29%
    15:00 +25°C° 0 mm 3 m/s 762 mmHg 28%
    16:00 +24°C° 0 mm 3 m/s 762 mmHg 31%
    17:00 +22°C° 0 mm 3 m/s 762 mmHg 34%
    18:00 +21°C° 0 mm 3 m/s 762 mmHg 38%
    19:00 +20°C° 0 mm 3 m/s 762 mmHg 43%
    20:00 +18°C° 0 mm 4 m/s 763 mmHg 49%
    21:00 +16°C° 0 mm 5 m/s 763 mmHg 54%
    22:00 +15°C° 0 mm 4 m/s 763 mmHg 56%
    23:00 +14°C° 0 mm 3 m/s 763 mmHg 58%

    Après-demain, 28 Avril, Dimanche

    Heure Température Précipitation Vent Pression Humidité
    00:00 +13°C° 0 mm 3 m/s 763 mmHg 60%
    01:00 +13°C° 0 mm 2 m/s 762 mmHg 60%
    02:00 +13°C° 0 mm 1 m/s 762 mmHg 61%
    03:00 +13°C° 0 mm 1 m/s 762 mmHg 62%
    04:00 +13°C° 0 mm 1 m/s 762 mmHg 63%
    05:00 +13°C° 0 mm 1 m/s 761 mmHg 63%
    06:00 +13°C° 0 mm 2 m/s 761 mmHg 63%
    07:00 +14°C° 0 mm 3 m/s 761 mmHg 55%
    08:00 +18°C° 0 mm 3 m/s 760 mmHg 46%
    09:00 +20°C° 0 mm 4 m/s 760 mmHg 38%
    10:00 +21°C° 0 mm 4 m/s 759 mmHg 35%
    11:00 +22°C° 0 mm 3 m/s 759 mmHg 33%
    12:00 +25°C° 0 mm 3 m/s 758 mmHg 31%
    13:00 +25°C° 0 mm 3 m/s 758 mmHg 30%
    14:00 +26°C° 0 mm 2 m/s 758 mmHg 29%
    15:00 +27°C° 0 mm 2 m/s 757 mmHg 28%
    16:00 +26°C° 0 mm 2 m/s 757 mmHg 33%
    17:00 +25°C° 0 mm 1 m/s 757 mmHg 37%
    18:00 +24°C° 0 mm 1 m/s 757 mmHg 41%
    19:00 +23°C° 0 mm 1 m/s 758 mmHg 43%
    20:00 +21°C° 0 mm 1 m/s 758 mmHg 45%
    21:00 +20°C° 0 mm 1 m/s 759 mmHg 47%
    22:00 +19°C° 0 mm 1 m/s 759 mmHg 45%
    23:00 +19°C° 0 mm 1 m/s 759 mmHg 42%

    29 Avril, Lundi

    Heure Température Précipitation Vent Pression Humidité
    00:00 +17°C° 0 mm 2 m/s 759 mmHg 39%
    01:00 +17°C° 0 mm 2 m/s 759 mmHg 38%
    02:00 +17°C° 0 mm 2 m/s 759 mmHg 37%
    03:00 +16°C° 0 mm 2 m/s 759 mmHg 36%
    04:00 +16°C° 0 mm 3 m/s 759 mmHg 40%
    05:00 +16°C° 0 mm 3 m/s 759 mmHg 43%
    06:00 +16°C° 0 mm 3 m/s 759 mmHg 46%
    07:00 +18°C° 0 mm 4 m/s 759 mmHg 42%
    08:00 +21°C° 0 mm 4 m/s 759 mmHg 37%
    09:00 +23°C° 0 mm 5 m/s 759 mmHg 32%
    10:00 +25°C° 0 mm 4 m/s 758 mmHg 30%
    11:00 +26°C° 0 mm 4 m/s 758 mmHg 28%
    12:00 +28°C° 0 mm 3 m/s 758 mmHg 27%
    13:00 +28°C° 0 mm 3 m/s 757 mmHg 26%
    14:00 +29°C° 0 mm 2 m/s 757 mmHg 26%
    15:00 +29°C° 0 mm 2 m/s 756 mmHg 25%
    16:00 +28°C° 0 mm 2 m/s 756 mmHg 30%
    17:00 +27°C° 0 mm 2 m/s 757 mmHg 35%
    18:00 +26°C° 0 mm 2 m/s 757 mmHg 40%
    19:00 +25°C° 0.1 mm 1 m/s 757 mmHg 42%
    20:00 +24°C° 0.1 mm 1 m/s 758 mmHg 44%
    21:00 +23°C° 0.1 mm 1 m/s 758 mmHg 45%
    22:00 +22°C° 0.1 mm 1 m/s 758 mmHg 44%
    23:00 +21°C° 0.1 mm 2 m/s 758 mmHg 42%

    30 Avril, Mardi

    Heure Température Précipitation Vent Pression Humidité
    00:00 +20°C° 0.1 mm 2 m/s 758 mmHg 40%
    01:00 +19°C° 0 mm 2 m/s 758 mmHg 43%
    02:00 +19°C° 0 mm 1 m/s 758 mmHg 45%
    03:00 +16°C° 0 mm 0 m/s 758 mmHg 47%
    04:00 +17°C° 0 mm 0 m/s 758 mmHg 47%
    05:00 +19°C° 0 mm 1 m/s 758 mmHg 48%
    06:00 +19°C° 0 mm 1 m/s 758 mmHg 48%
    07:00 +20°C° 0 mm 2 m/s 758 mmHg 43%
    08:00 +23°C° 0 mm 2 m/s 758 mmHg 39%
    09:00 +24°C° 0 mm 3 m/s 758 mmHg 35%
    10:00 +25°C° 0 mm 3 m/s 757 mmHg 34%
    11:00 +26°C° 0 mm 3 m/s 757 mmHg 33%
    12:00 +28°C° 0 mm 3 m/s 757 mmHg 32%
    13:00 +27°C° 0.1 mm 5 m/s 757 mmHg 35%
    14:00 +26°C° 0.1 mm 7 m/s 756 mmHg 39%
    15:00 +24°C° 0.1 mm 8 m/s 756 mmHg 42%
    16:00 +23°C° 0.3 mm 7 m/s 757 mmHg 50%
    17:00 +21°C° 0.3 mm 6 m/s 757 mmHg 57%
    18:00 +20°C° 0.3 mm 5 m/s 757 mmHg 65%
    19:00 +19°C° 0 mm 4 m/s 757 mmHg 67%
    20:00 +19°C° 0 mm 3 m/s 758 mmHg 70%
    21:00 +18°C° 0 mm 2 m/s 758 mmHg 72%
    22:00 +18°C° 0 mm 2 m/s 758 mmHg 71%
    23:00 +17°C° 0 mm 2 m/s 758 mmHg 71%

    1 Mai, Mercredi

    Heure Température Précipitation Vent Pression Humidité
    00:00 +17°C° 0 mm 2 m/s 758 mmHg 70%
    01:00 +17°C° 0 mm 2 m/s 757 mmHg 69%
    02:00 +17°C° 0 mm 2 m/s 757 mmHg 67%
    03:00 +16°C° 0 mm 3 m/s 757 mmHg 65%
    04:00 +17°C° 0 mm 3 m/s 757 mmHg 63%
    05:00 +17°C° 0 mm 3 m/s 757 mmHg 61%
    06:00 +17°C° 0 mm 3 m/s 757 mmHg 58%
    07:00 +19°C° 0 mm 4 m/s 757 mmHg 51%
    08:00 +21°C° 0 mm 4 m/s 757 mmHg 43%
    09:00 +25°C° 0 mm 5 m/s 756 mmHg 35%
    10:00 +26°C° 0 mm 4 m/s 756 mmHg 32%
    11:00 +28°C° 0 mm 3 m/s 755 mmHg 29%
    12:00 +29°C° 0 mm 3 m/s 755 mmHg 26%
    13:00 +30°C° 0 mm 2 m/s 754 mmHg 25%
    14:00 +30°C° 0 mm 1 m/s 753 mmHg 24%
    15:00 +31°C° 0 mm 1 m/s 753 mmHg 24%
    16:00 +30°C° 0.1 mm 1 m/s 753 mmHg 28%
    17:00 +29°C° 0.1 mm 1 m/s 753 mmHg 32%
    18:00 +28°C° 0.1 mm 1 m/s 753 mmHg 36%
    19:00 +26°C° 0.1 mm 1 m/s 753 mmHg 38%
    20:00 +25°C° 0.1 mm 2 m/s 753 mmHg 39%
    21:00 +23°C° 0.1 mm 2 m/s 754 mmHg 41%
    22:00 +23°C° 0.1 mm 2 m/s 754 mmHg 40%
    23:00 +21°C° 0.1 mm 2 m/s 754 mmHg 39%
    Voir plus